Kansas City International, MO

3:29 AM CDT on August 22, 2017 (GMT -0500)
Kansas City International

Weather History for KMCI - August, 2014

Change the Weather History Date:

Monday, August 25, 2014

  Actual Average Record
Temperature  
Mean Temperature 86 °F 76 °F  
Max Temperature 95 °F 86 °F 107 °F (1936)
Min Temperature 76 °F 66 °F 53 °F (1958)
Degree Days  
Heating Degree Days 0 0  
Month to date heating degree days 0 0  
Since 1 June heating degree days 3 9  
Since 1 July heating degree days 2 0  
Cooling Degree Days 21 11  
Month to date cooling degree days 313 314  
Year to date cooling degree days 1037 1110  
Since 1 June cooling degree days 876 994  
Growing Degree Days 35 (Base 50)    
Moisture  
Dew Point 70 °F    
Average Humidity 62    
Maximum Humidity 79    
Minimum Humidity 44    
Precipitation  
Precipitation 0.01 in 0.14 in 3.88 in (1975)
Month to date precipitation 4.74 3.08  
Year to date precipitation 23.31 26.59  
Snow  
Snow 0.00 in 0.00 in 0.00 in ()
Month to date snowfall 0.0 0.0  
Since 1 June snowfall 0.0 0.0  
Since 1 July snowfall 0.0 0.0  
Snow Depth 0.00 in    
Sea Level Pressure  
Sea Level Pressure 29.93 in    
Wind  
Wind Speed 8 mph (South)    
Max Wind Speed 20 mph    
Max Gust Speed 24 mph    
Visibility 10 miles    
Events Rain    
T = Trace of Precipitation, MM = Missing Value Source: NWS Daily Summary

Daily Weather History Graph

Daily Weather History Graph

Search for Another Location

Airport or City:

Trip Planner

Search our weather history database for the weather conditions in past years. The results will help you decide how hot, cold, wet, or windy it might be!

Date:

Astronomy

Aug. 25, 2014 Rise Set
Actual Time 6:40 AM CDT 8:00 PM CDT
Civil Twilight 6:13 AM CDT 8:27 PM CDT
Nautical Twilight 5:39 AM CDT 9:01 PM CDT
Astronomical Twilight 5:04 AM CDT 9:36 PM CDT
Moon 6:46 AM CDT (8/25) 7:51 PM CDT (8/25)
Length of Visible Light 14h 14m
Length of Day
13h 19m
New Moon, 0% of the Moon is Illuminated
Aug 25
New Moon
Sep 2
First Quarter
Sep 8
Full
Sep 15
Last Quarter
Sep 24
New

Hourly Weather History & Observations

Time (CDT) Temp. Heat Index Dew Point Humidity Pressure Visibility Wind Dir Wind Speed Gust Speed Precip Events Conditions
12:53 AM 81.0 °F 83.0 °F 66.0 °F 60% 29.88 in 10.0 mi SSW 11.5 mph - N/A   Clear
1:53 AM 82.4 °F 84.6 °F 66.2 °F 58% 29.87 in 10.0 mi SSW 12.7 mph - N/A   Clear
2:53 AM 80.1 °F 82.3 °F 66.9 °F 64% 29.89 in 10.0 mi SSW 6.9 mph - N/A   Clear
3:53 AM 80.6 °F 83.2 °F 68.0 °F 65% 29.93 in 10.0 mi SSW 9.2 mph - N/A   Mostly Cloudy
4:53 AM 78.1 °F - 68.0 °F 71% 29.91 in 10.0 mi SW 5.8 mph - N/A   Overcast
5:53 AM 77.0 °F - 69.1 °F 76% 29.89 in 9.0 mi SSW 12.7 mph - 0.00 in Rain Light Rain
6:53 AM 75.2 °F - 69.8 °F 83% 29.95 in 10.0 mi SSW 6.9 mph - N/A   Mostly Cloudy
7:53 AM 78.1 °F - 71.1 °F 79% 29.93 in 10.0 mi SSW 5.8 mph - N/A   Mostly Cloudy
8:53 AM 82.4 °F 87.2 °F 71.6 °F 70% 29.97 in 10.0 mi SW 5.8 mph - N/A   Scattered Clouds
9:53 AM 84.9 °F 90.7 °F 72.0 °F 65% 29.95 in 10.0 mi SSW 8.1 mph - N/A   Scattered Clouds
10:53 AM 87.1 °F 93.6 °F 72.0 °F 61% 29.96 in 10.0 mi SSW 11.5 mph - N/A   Scattered Clouds
11:53 AM 89.1 °F 97.0 °F 73.0 °F 59% 29.98 in 10.0 mi SW 8.1 mph - N/A   Scattered Clouds
12:53 PM 91.0 °F 98.2 °F 72.0 °F 53% 29.98 in 10.0 mi WSW 4.6 mph - N/A   Clear
1:53 PM 93.0 °F 97.4 °F 68.0 °F 44% 29.96 in 10.0 mi Calm Calm - N/A   Scattered Clouds
2:53 PM 93.9 °F 100.8 °F 71.1 °F 47% 29.94 in 10.0 mi West 4.6 mph - N/A   Scattered Clouds
3:53 PM 93.9 °F 102.1 °F 72.0 °F 49% 29.93 in 10.0 mi South 5.8 mph - N/A   Scattered Clouds
4:53 PM 93.9 °F 100.8 °F 71.1 °F 47% 29.91 in 10.0 mi South 6.9 mph - N/A   Partly Cloudy
5:53 PM 93.9 °F 102.1 °F 72.0 °F 49% 29.90 in 10.0 mi SE 10.4 mph - N/A   Clear
6:53 PM 91.9 °F 99.5 °F 72.0 °F 52% 29.90 in 10.0 mi SSE 8.1 mph - N/A   Clear
7:53 PM 88.0 °F 92.9 °F 70.0 °F 55% 29.91 in 10.0 mi East 5.8 mph - N/A   Partly Cloudy
8:53 PM 86.0 °F 91.8 °F 71.6 °F 62% 29.97 in 10.0 mi SE 10.4 mph - N/A   Partly Cloudy
9:53 PM 86.0 °F 91.8 °F 71.6 °F 62% 29.99 in 10.0 mi ESE 9.2 mph - N/A   Clear
10:53 PM 82.0 °F 86.3 °F 71.1 °F 69% 29.96 in 10.0 mi SE 9.2 mph - N/A   Clear
11:53 PM 82.0 °F 86.3 °F 71.1 °F 69% 29.97 in 10.0 mi SSE 11.5 mph - N/A   Partly Cloudy